Infomails.de



www.awekas.at



Wetterübersicht - Penzberg,Oberbayern
N 47° 45' 25" O 11° 22' 5 " - 606 m über NN
Wetterstation: VantagePro Plus
CallSign-ID APRS: CW0334
Datum Mittwoch, 26. November 2014
Zeit 23:59 (-1h = UTC-Zeit)
Temperatur Außen
aktuell
3,6 °C
Min.(03:21)
3,3 °C
(2013:) -4,2 °C (21:29)
Max.(14:43)
5,7 °C
(2013:) 0,2 °C (13:35)
Durchschnitt
4,1 °C
(2013:) -2,7 °C
Durchschnitt gestern: 5,2 °C

Max. gestern: 6,4 °C
Luftfeuchte Außen
aktuell
94 %
Min.(13:59)
86 %
(2013:) 73 % (13:37)
Max.(03:59)
95 %
(2013:) 88 % (01:29)
Durchschnitt
92 %
(2013:) 84 %
Absolute Aussen-Feuchte: 5,82 g/m³
Lüften: Sie können unbesorgt lüften.
Taupunkt aktuell
2,7 °C
Min.(03:21)
2,4 °C
Max.(13:37)
3,8 °C
Durchschnitt
2,9 °C
Luftdruck
aktuell
1011,7 hPa
-1,3 hPa/3h
Tendenz: fallend
Min.(23:47)
1011,7 hPa
(2013:) 1027,5 hPa (00:30)
Max.(00:01)
1017,5 hPa
(2013:) 1031,6 hPa (19:46)
Durchschnitt
1014,5 hPa
(2013:) 1029,7 hPa
-0,3 hPa/1h -0,8 hPa/2h -1,3 hPa/6h -3,1 hPa/12h -5,8 hPa/24h
UV-Index aktuell
0,0 UV-I
Belastung:none
Max.(00:01)
0,0 UV-I
Durchschnitt
0,0 UV-I
Solarstrahlung aktuell
0 W/m²
Max.(14:09)
120 W/m²
Durchschnitt
55 W/m²
mögl. Gesamtleistung:
488 W/m²
Evapotranspiration Aktuell: 0,000 mm
Tag: 0,000 mm
Wettervorhersage veränderlich
Wettervorhersage VantagePro

Klick für 4-Tages-Vorhersage
Zunehmende Bewölkung mit wenig Temperaturänderung.
Schneefallgrenze ~ 960 m (berechnet)
Wolkenuntergrenze ~ 134 m (berechnet)
Horizontsichtweite ~ dunkel ! - 5-10 km (berechnet)
Windchill aktuell
3,6 °C
Min.(03:21)
3,3 °C
Max.(14:43)
5,7 °C
Durchschnitt
4,1 °C
Wind-Böen aktuell
0,0 km/h (0 Bft)
=
Max.(00:01)
- - 0,0 km/h (0 Bft)
(2013:) 12,9 km/h (13:29)
Durchschnitt
0,0 km/h (0 Bft)
(2013:) 0,8 km/h
Windgeschwindigkeit aktuell
0,0 km/h (0 Bft)
=
Max.(00:01)
W-NW 0,0 km/h (0 Bft)
(2013:) 12,9 km/h (13:30)
Durchschnitt
0,0 km/h (0 Bft)
(2013:) 0,5 km/h
Windrichtung 288 ° / W-NW dominierend
W-NW
Windrichtung Windböen 0 ° / - -
Seegang 0 - glatte See
letzter Frost Erster Frost: 25.10.2014
Letzter Frost: 09:03 20.11.2014
Dauer: 2 Stunden, 5 Minuten
  (ab 06:58 20.11.2014)

Erster Frosttag im letzten Jahr: 04.11.2013    Erster Frosttag im vorletzten Jahr 27.10.2012
Letzter Frosttag in diesem Jahr 18.04.2014    Letzter Frosttag im letzten Jahr 08.04.2013
Niederschlag
Klick für Regenradar Bayern
letzte Std. 0,0 mm
letzten 24 Std. 0,3 mm
aktueller Tag 0,3 mm
Gestern 0,0 mm
aktuelle Woche 0,3 mm
aktueller Monat 45,5 mm
letztes Monat 126,2 mm
November Vorjahr 61,2 mm
aktuelles Jahr 879,3 mm
Vorjahr 968,3 mm
Regentage / Jahr 164 Tage
Regentage / Vorjahr 152 Tage
durchschnittlich im November 65,5 mm
Das bedeutet bisher: -20,0 mm
Letzter Niederschlag 08:36 26.11.2014
Es hat also seit 15 h, 22 min nicht mehr geregnet
Schneehöhe 0,0 cm
Mond
Alter des Mondes4 Tage, 17 Stunden, 14 Minuten
Mondaufgang10:50
Mondzenit15:42
Monduntergang20:42
MondphaseÝ 23%
(0% = Neumond, 100% = Vollmond)
letztes Viertel13:52    14. Dezember 2014
erstes Viertel11:07    29. November 2014
nächster Vollmond13:27    6. Dezember 2014
nächster Neumond02:36    22. Dezember 2014
Sonne
Sonnenaufgang gestern07:34    25. November 2014
Sonnenaufgang07:35
Sonnenzenit12:01
Sonnenuntergang16:27
Sonnenaufgang morgen07:36    27. November 2014
Sonnenuntergang morgen16:26    27. November 2014
Tageslänge08:52
Bewölkungsgraddunkel
Sonnenhöchststand21,278 °
Sichtweitedunkel ! - 5-10 km
Elevation-63,295 °
Azimuth-178,473 °
Tagessonnenstunden9 Minuten
Wochensonnenstunden3:47 Stunden
Monatssonnenstunden76:48 Stunden
Jahressonnenstunden1418:43 Stunden
Die dargestellten Werte repräsentieren die Daten des aktuellen Tages! Der Luftdruck ist auf Meereshöhe bezogen!
Die Mond-/Sonnen-Daten beziehen sich auf die Standortkoordinaten von 47° 45' 25" Nord  -  11° 22' 5" Ost
Zeit --> Mittel Europäische Zeit
Die Wettervorhersage wurde berechnet - ohne Gewähr!


Jahres-Eistage (Tmax < 0°C) 0 Vorjahres-Eistage (Tmax < 0°C) 12
Jahres-Frosttage (Tmin <= 0°C) 60 Vorjahres-Frosttage (Tmin <= 0°C) 104
Kalte Tage des Jahres (Tmax < 10°C) 64 Kalte Tage des Vorjahres (Tmax < 10°C) 131
Jahres-Sommertage (Tmax >= 25°C) 52 Vorjahres-Sommertage (Tmax >= 25°C) 62
Heiße Tage des Jahres (Tmax >= 30°C) 13 Heiße Tage Vorjahr (Tmax >= 30°C) 22

Die Jahresanzahlen gelten immer für den Zeitraum 01.01. bis 31.12. des laufenden Jahres.
Sie sind also nur bedingt vergleichbar, können aber einen Anhalt geben ob das Jahr kühler oder wärmer als das vorherige wird.

Monats-Eistage (Tmax < 0°C) 0 Monats-Eistage Vorjahr (Tmax < 0°C) 1
Monats-Frosttage (Tmin <= 0°C) 3 Monats-Frosttage Vorjahr(Tmin <= 0°C) 7
Kalte Tage des Monats(Tmax < 10°C) 10 Kalte Tage des Monats Vorjahr (Tmax < 10°C) 19
Monats-Sommertage (Tmax >= 25°C) 1 Monats-Sommertage Vorjahr (Tmax >= 25°C) 0
Heiße Tage des Monats (Tmax >= 30°C) 1 Heiße Tage des Monats Vorjahr (Tmax >= 30°C) 0

Mit diesen Zahlen kann man sehr gut den jeweiligen aktuellen Monat und den des Vorjahrs vergleichen.

Durchschnitts-Temperatur des aktuellen Monats 6,18 °C
Standardabweichung des Monats +1,86
Normaltemperatur Jahr 9,2 °C
Durchschnitts-Temperatur des aktuellen Jahres 10,85 °C

          Aussen-      Aussen                                                                          Wind         Sonnen        Sonnen
Zeit     tempera.      Feuchte     Luftdruck      Taupunkt     Windchill     Regen        Wind       richtung     Elevation      azimuth
----------------------------------------------------------------------------------------------------------------------------------------
00:01      3,4 °C         94 %     1017,5 hPa      2,5 °C        3,4 °C      0,0 mm     0,0 km/h         W-NW     -63,113 °   -179,677 °
01:00      3,4 °C         94 %     1016,9 hPa      2,5 °C        3,4 °C      0,0 mm     0,0 km/h         W-NW     -60,658 °    151,293 °
02:00      3,4 °C         94 %     1016,5 hPa      2,5 °C        3,4 °C      0,0 mm     0,0 km/h         W-NW     -54,108 °    128,106 °
03:00      3,4 °C         94 %     1015,9 hPa      2,5 °C        3,4 °C      0,0 mm     0,0 km/h         W-NW     -45,344 °    111,083 °
04:00      3,4 °C         95 %     1015,8 hPa      2,7 °C        3,4 °C      0,0 mm     0,0 km/h         W-NW     -35,599 °     97,797 °
05:00      3,3 °C         94 %     1015,7 hPa      2,4 °C        3,3 °C      0,0 mm     0,0 km/h         W-NW     -25,545 °     86,439 °
06:00      3,3 °C         95 %     1015,5 hPa      2,6 °C        3,3 °C      0,0 mm     0,0 km/h         W-NW     -15,603 °     75,885 °
07:00      3,4 °C         95 %     1015,3 hPa      2,7 °C        3,4 °C      0,0 mm     0,0 km/h         W-NW      -6,109 °     65,390 °
08:00      3,4 °C         95 %     1015,6 hPa      2,7 °C        3,4 °C      0,0 mm     0,0 km/h         W-NW       2,599 °     54,410 °
09:00      3,6 °C         95 %     1015,5 hPa      2,9 °C        3,6 °C      0,0 mm     0,0 km/h         W-NW      10,136 °     42,528 °
10:00      3,8 °C         95 %     1015,5 hPa      3,1 °C        3,8 °C      0,0 mm     0,0 km/h         W-NW      16,058 °     29,494 °
11:00      4,1 °C         93 %     1015,3 hPa      3,1 °C        4,1 °C      0,0 mm     0,0 km/h         W-NW      19,899 °     15,333 °
12:00      4,7 °C         92 %     1014,8 hPa      3,5 °C        4,7 °C      0,0 mm     0,0 km/h         W-NW      21,277 °      0,446 °
13:00      5,1 °C         88 %     1014,6 hPa      3,3 °C        5,1 °C      0,0 mm     0,0 km/h         W-NW      20,037 °    -14,461 °
14:00      5,6 °C         86 %     1013,9 hPa      3,4 °C        5,6 °C      0,0 mm     0,0 km/h         W-NW      16,320 °    -28,672 °
15:00      5,6 °C         87 %     1013,6 hPa      3,6 °C        5,6 °C      0,0 mm     0,0 km/h         W-NW      10,497 °    -41,765 °
16:00      5,4 °C         87 %     1013,4 hPa      3,4 °C        5,4 °C      0,0 mm     0,0 km/h         W-NW       3,033 °    -53,696 °
17:00      5,0 °C         88 %     1013,2 hPa      3,2 °C        5,0 °C      0,0 mm     0,0 km/h         W-NW      -5,626 °    -64,705 °
18:00      4,6 °C         89 %     1013,0 hPa      2,9 °C        4,6 °C      0,0 mm     0,0 km/h         W-NW     -15,091 °    -75,198 °
19:00      4,3 °C         90 %     1013,1 hPa      2,8 °C        4,3 °C      0,0 mm     0,0 km/h         W-NW     -25,024 °    -85,712 °
20:00      4,1 °C         91 %     1013,0 hPa      2,8 °C        4,1 °C      0,0 mm     0,0 km/h         W-NW     -35,093 °    -96,973 °
21:00      3,9 °C         92 %     1013,0 hPa      2,7 °C        3,9 °C      0,0 mm     0,0 km/h         W-NW     -44,888 °   -110,077 °
22:00      3,9 °C         93 %     1012,5 hPa      2,9 °C        3,9 °C      0,0 mm     0,0 km/h         W-NW     -53,761 °   -126,794 °
23:00      3,8 °C         94 %     1012,0 hPa      2,9 °C        3,8 °C      0,0 mm     0,0 km/h         W-NW     -60,523 °   -149,584 °
----------------------------------------------------------------------------------------------------------------------------------------
Durch.     4,1 °C         92 %     1014,5 hPa      2,9 °C        4,1 °C      0,0 mm     0,0 km/h

Min.       3,3 °C         86 %     1011,7 hPa      2,4 °C        3,3 °C      0,0 mm     0,0 km/h
Zeit      03:21         13:59       23:47         03:21          03:21       00:01        00:01

Max.       5,7 °C         95 %     1017,5 hPa      3,8 °C        5,7 °C      0,3 mm     0,0 km/h
Zeit      14:43         03:59       00:01         13:37          14:43       08:36        00:01



Grafische Darstellung (Zum Vergrößern einfach Doppelklick auf die Grafik):

Erzeugt mit V2.97.10 von Werner Krenn


Tabellarische 24-Stundenübersicht: Aktuell


Mondphase:

Letztes Update:
23.04.2006
© by B2-Design

© 1999-2013 Werner Krenn / Mischa Thurnherr - Wetterstation Bedien- und Auswertesoftware - V2.97.10

Powered by Hier klicken!